When you browse on this site, cookies collect data to enhance your experience and personalize the content and advertising you see.
Visit our Privacy Policy to learn more. By continuing to use the site, you agree to this use of cookies and data.
  • In Österreich
  • Länderverzeichnis
  • Für 7 Tage
  • Wassertemperatur
  • Wetterkarte
  • News
  • Widgets
  • user-avatar
    Anmelden

    Stündliche Wetter Nesterovka

    Heute, 3 Juni, Mittwoch

    Zeit Temperatur Niederschläge Wind Luftdruck Luftfeuchtigkeit
    00:00 +15°C° 0 mm 5 m/S 749 mmHg 76%
    01:00 +14°C° 0 mm 5 m/S 749 mmHg 76%
    02:00 +14°C° 0 mm 4 m/S 749 mmHg 77%
    03:00 +14°C° 0 mm 4 m/S 749 mmHg 78%
    04:00 +13°C° 0 mm 3 m/S 749 mmHg 78%
    05:00 +14°C° 0 mm 4 m/S 749 mmHg 78%
    06:00 +15°C° 0 mm 4 m/S 749 mmHg 77%
    07:00 +16°C° 0 mm 5 m/S 749 mmHg 76%
    08:00 +19°C° 0 mm 5 m/S 749 mmHg 73%
    09:00 +21°C° 0 mm 5 m/S 749 mmHg 69%
    10:00 +23°C° 0 mm 5 m/S 749 mmHg 65%
    11:00 +25°C° 0 mm 5 m/S 749 mmHg 59%
    12:00 +26°C° 0 mm 5 m/S 749 mmHg 52%
    13:00 +28°C° 0 mm 5 m/S 749 mmHg 45%
    14:00 +28°C° 0 mm 5 m/S 749 mmHg 45%
    15:00 +28°C° 0 mm 5 m/S 749 mmHg 44%
    16:00 +28°C° 0 mm 5 m/S 749 mmHg 44%
    17:00 +27°C° 0 mm 5 m/S 749 mmHg 50%
    18:00 +25°C° 0 mm 4 m/S 749 mmHg 57%
    19:00 +23°C° 0 mm 4 m/S 748 mmHg 63%
    20:00 +22°C° 0 mm 5 m/S 748 mmHg 65%
    21:00 +21°C° 0 mm 5 m/S 749 mmHg 67%
    22:00 +20°C° 0 mm 6 m/S 749 mmHg 70%
    23:00 +19°C° 0 mm 6 m/S 748 mmHg 70%

    Morgen, 4 Juni, Donnerstag

    Zeit Temperatur Niederschläge Wind Luftdruck Luftfeuchtigkeit
    00:00 +19°C° 0 mm 6 m/S 748 mmHg 71%
    01:00 +18°C° 0 mm 7 m/S 748 mmHg 71%
    02:00 +17°C° 0 mm 7 m/S 748 mmHg 70%
    03:00 +17°C° 0 mm 7 m/S 748 mmHg 68%
    04:00 +17°C° 0 mm 7 m/S 748 mmHg 66%
    05:00 +17°C° 0 mm 7 m/S 748 mmHg 67%
    06:00 +17°C° 0 mm 8 m/S 748 mmHg 67%
    07:00 +18°C° 0 mm 8 m/S 748 mmHg 67%
    08:00 +18°C° 0 mm 8 m/S 748 mmHg 66%
    09:00 +20°C° 0 mm 7 m/S 748 mmHg 65%
    10:00 +20°C° 0 mm 7 m/S 749 mmHg 64%
    11:00 +21°C° 0 mm 7 m/S 749 mmHg 63%
    12:00 +21°C° 0 mm 7 m/S 749 mmHg 62%
    13:00 +22°C° 0 mm 8 m/S 749 mmHg 61%
    14:00 +22°C° 0 mm 7 m/S 749 mmHg 61%
    15:00 +22°C° 0 mm 7 m/S 749 mmHg 61%
    16:00 +22°C° 0 mm 6 m/S 749 mmHg 61%
    17:00 +22°C° 0 mm 6 m/S 749 mmHg 63%
    18:00 +21°C° 0 mm 5 m/S 749 mmHg 65%
    19:00 +20°C° 0 mm 5 m/S 749 mmHg 67%
    20:00 +19°C° 0.1 mm 5 m/S 749 mmHg 67%
    21:00 +19°C° 0.1 mm 4 m/S 749 mmHg 67%
    22:00 +18°C° 0.1 mm 4 m/S 750 mmHg 67%
    23:00 +17°C° 0.1 mm 5 m/S 750 mmHg 65%

    übermorgen, 5 Juni, Freitag

    Zeit Temperatur Niederschläge Wind Luftdruck Luftfeuchtigkeit
    00:00 +16°C° 0.1 mm 6 m/S 750 mmHg 63%
    01:00 +16°C° 0.1 mm 6 m/S 749 mmHg 61%
    02:00 +16°C° 0 mm 6 m/S 750 mmHg 58%
    03:00 +16°C° 0 mm 7 m/S 750 mmHg 56%
    04:00 +16°C° 0 mm 7 m/S 750 mmHg 54%
    05:00 +16°C° 0 mm 7 m/S 750 mmHg 56%
    06:00 +15°C° 0 mm 7 m/S 750 mmHg 58%
    07:00 +15°C° 0 mm 7 m/S 750 mmHg 61%
    08:00 +15°C° 0 mm 8 m/S 751 mmHg 62%
    09:00 +15°C° 0 mm 8 m/S 751 mmHg 63%
    10:00 +16°C° 0 mm 8 m/S 752 mmHg 64%
    11:00 +16°C° 0 mm 8 m/S 752 mmHg 63%
    12:00 +17°C° 0 mm 8 m/S 752 mmHg 62%
    13:00 +18°C° 0 mm 8 m/S 752 mmHg 61%
    14:00 +18°C° 0 mm 8 m/S 752 mmHg 60%
    15:00 +18°C° 0 mm 8 m/S 752 mmHg 60%
    16:00 +18°C° 0 mm 8 m/S 752 mmHg 60%
    17:00 +17°C° 0 mm 8 m/S 752 mmHg 61%
    18:00 +17°C° 0 mm 7 m/S 752 mmHg 62%
    19:00 +16°C° 0 mm 7 m/S 752 mmHg 62%
    20:00 +15°C° 0 mm 7 m/S 752 mmHg 63%
    21:00 +15°C° 0 mm 6 m/S 752 mmHg 63%
    22:00 +14°C° 0 mm 6 m/S 752 mmHg 63%
    23:00 +14°C° 0 mm 6 m/S 752 mmHg 63%

    6 Juni, Samstag

    Zeit Temperatur Niederschläge Wind Luftdruck Luftfeuchtigkeit
    00:00 +14°C° 0 mm 6 m/S 752 mmHg 62%
    01:00 +14°C° 0 mm 5 m/S 753 mmHg 61%
    02:00 +14°C° 0 mm 5 m/S 753 mmHg 61%
    03:00 +14°C° 0 mm 5 m/S 753 mmHg 60%
    04:00 +14°C° 0 mm 5 m/S 753 mmHg 60%
    05:00 +14°C° 0 mm 5 m/S 753 mmHg 61%
    06:00 +14°C° 0 mm 5 m/S 753 mmHg 62%
    07:00 +14°C° 0 mm 6 m/S 753 mmHg 63%
    08:00 +16°C° 0 mm 6 m/S 753 mmHg 60%
    09:00 +17°C° 0 mm 6 m/S 753 mmHg 57%
    10:00 +19°C° 0 mm 6 m/S 754 mmHg 53%
    11:00 +19°C° 0 mm 6 m/S 754 mmHg 53%
    12:00 +20°C° 0 mm 5 m/S 754 mmHg 52%
    13:00 +20°C° 0 mm 5 m/S 754 mmHg 52%
    14:00 +21°C° 0 mm 5 m/S 754 mmHg 52%
    15:00 +21°C° 0 mm 5 m/S 754 mmHg 51%
    16:00 +22°C° 0 mm 4 m/S 754 mmHg 51%
    17:00 +21°C° 0 mm 4 m/S 754 mmHg 54%
    18:00 +21°C° 0 mm 4 m/S 754 mmHg 58%
    19:00 +20°C° 0 mm 3 m/S 754 mmHg 62%
    20:00 +18°C° 0 mm 3 m/S 754 mmHg 64%
    21:00 +16°C° 0 mm 3 m/S 754 mmHg 67%
    22:00 +13°C° 0 mm 3 m/S 755 mmHg 69%
    23:00 +13°C° 0 mm 3 m/S 755 mmHg 67%

    7 Juni, Sonntag

    Zeit Temperatur Niederschläge Wind Luftdruck Luftfeuchtigkeit
    00:00 +13°C° 0 mm 3 m/S 755 mmHg 65%
    01:00 +12°C° 0 mm 3 m/S 755 mmHg 63%
    02:00 +12°C° 0 mm 3 m/S 755 mmHg 66%
    03:00 +12°C° 0 mm 4 m/S 755 mmHg 69%
    04:00 +11°C° 0 mm 4 m/S 755 mmHg 72%
    05:00 +13°C° 0 mm 4 m/S 755 mmHg 68%
    06:00 +14°C° 0 mm 5 m/S 756 mmHg 63%
    07:00 +15°C° 0 mm 5 m/S 756 mmHg 59%
    08:00 +17°C° 0 mm 5 m/S 756 mmHg 54%
    09:00 +20°C° 0 mm 5 m/S 756 mmHg 48%
    10:00 +22°C° 0 mm 6 m/S 756 mmHg 43%
    11:00 +23°C° 0 mm 6 m/S 756 mmHg 41%
    12:00 +24°C° 0 mm 6 m/S 756 mmHg 38%
    13:00 +26°C° 0 mm 6 m/S 756 mmHg 36%
    14:00 +24°C° 0 mm 6 m/S 756 mmHg 37%
    15:00 +24°C° 0 mm 6 m/S 756 mmHg 38%
    16:00 +24°C° 0 mm 6 m/S 756 mmHg 40%
    17:00 +23°C° 0 mm 5 m/S 756 mmHg 45%
    18:00 +22°C° 0 mm 4 m/S 756 mmHg 51%
    19:00 +21°C° 0 mm 3 m/S 756 mmHg 57%
    20:00 +20°C° 0 mm 3 m/S 756 mmHg 58%
    21:00 +19°C° 0 mm 3 m/S 756 mmHg 59%
    22:00 +18°C° 0 mm 3 m/S 756 mmHg 60%
    23:00 +18°C° 0 mm 3 m/S 756 mmHg 62%

    8 Juni, Montag

    Zeit Temperatur Niederschläge Wind Luftdruck Luftfeuchtigkeit
    00:00 +17°C° 0 mm 3 m/S 757 mmHg 65%
    01:00 +16°C° 0 mm 3 m/S 757 mmHg 68%
    02:00 +16°C° 0 mm 3 m/S 757 mmHg 67%
    03:00 +14°C° 0 mm 4 m/S 757 mmHg 67%
    04:00 +14°C° 0 mm 4 m/S 757 mmHg 67%
    05:00 +15°C° 0 mm 4 m/S 757 mmHg 65%
    06:00 +16°C° 0 mm 5 m/S 757 mmHg 63%
    07:00 +19°C° 0 mm 5 m/S 758 mmHg 61%
    08:00 +21°C° 0 mm 6 m/S 758 mmHg 56%
    09:00 +23°C° 0 mm 6 m/S 758 mmHg 52%
    10:00 +26°C° 0 mm 6 m/S 758 mmHg 48%
    11:00 +26°C° 0 mm 6 m/S 758 mmHg 45%
    12:00 +27°C° 0 mm 6 m/S 758 mmHg 41%
    13:00 +28°C° 0 mm 6 m/S 758 mmHg 38%
    14:00 +28°C° 0 mm 5 m/S 758 mmHg 39%
    15:00 +28°C° 0 mm 5 m/S 758 mmHg 41%
    16:00 +28°C° 0 mm 4 m/S 757 mmHg 42%
    17:00 +27°C° 0 mm 4 m/S 758 mmHg 46%
    18:00 +26°C° 0 mm 3 m/S 758 mmHg 50%
    19:00 +26°C° 0 mm 3 m/S 758 mmHg 54%
    20:00 +24°C° 0 mm 3 m/S 758 mmHg 58%
    21:00 +21°C° 0 mm 3 m/S 758 mmHg 62%
    22:00 +19°C° 0 mm 3 m/S 758 mmHg 66%
    23:00 +19°C° 0 mm 3 m/S 758 mmHg 66%
    Mehr zeigen